Wind_Speed
56 55 53 51 50 48 44 39 35 32 33 33 33 32 29 26 24 23 21 19 19 17 17 16 16 16 16 16 17 16 14 13 15 13 13 14 14 11 9 11 12 13 15
57 56 55 52 51 51 46 41 38 35 34 34 34 35 33 28 26 25 23 22 21 19 19 20 19 19 17 17 17 17 17 16 14 15 16 16 14 13 15 15 14 16 19
56 57 56 54 53 52 47 43 41 38 36 36 35 36 35 32 29 27 24 24 23 22 19 21 22 22 21 19 16 16 17 17 17 18 18 18 18 18 18 17 17 19 22
53 54 55 55 53 52 47 44 43 40 38 39 39 38 35 32 31 29 27 27 26 25 23 21 22 24 23 21 19 16 15 16 18 20 19 19 18 18 20 21 23 23 24
49 51 52 54 53 50 48 46 43 42 40 39 42 41 40 37 33 33 31 29 29 27 27 28 25 23 24 23 22 18 16 16 15 16 18 20 20 19 20 22 22 24 25
48 49 48 50 52 50 48 47 44 44 43 41 43 45 45 43 40 36 32 31 29 30 31 30 30 24 22 25 24 21 19 19 17 16 18 20 19 19 20 20 22 23 25
48 48 47 48 50 50 49 48 47 45 44 44 44 45 47 46 43 38 35 34 32 32 32 29 31 28 18 26 24 22 20 20 22 18 18 19 19 19 20 23 23 23 21
48 47 46 46 46 48 49 50 49 47 46 47 46 45 45 45 42 39 37 36 36 34 32 30 28 24 22 21 22 21 19 20 19 19 19 18 20 21 20 21 22 22 23
48 48 47 45 45 47 50 50 52 51 49 49 49 45 43 43 41 38 37 39 38 34 32 25 20 21 22 19 20 19 19 19 18 19 19 18 20 19 21 20 19 21 24
48 49 46 45 45 45 45 46 50 53 52 49 49 46 43 41 41 39 37 40 38 34 33 27 22 23 22 21 20 19 20 19 20 17 19 19 19 16 16 18 19 18 15
40 45 46 45 44 42 37 42 48 51 50 50 49 47 44 43 42 39 37 39 35 32 28 26 25 23 23 20 18 19 19 17 18 19 18 17 14 13 15 13 9 8 10
33 37 41 42 40 39 43 44 45 49 45 46 45 44 44 44 42 36 36 34 31 29 28 25 24 22 21 19 21 20 19 19 19 17 16 13 11 11 9 8 8 9 11
25 30 35 39 41 42 45 47 44 46 43 46 45 40 40 44 40 38 37 34 29 30 25 24 22 21 19 19 20 19 17 17 18 18 15 11 10 9 7 8 10 12 14
19 25 28 34 38 42 42 45 43 47 49 51 50 44 48 45 40 38 32 24 26 27 24 25 24 22 20 20 20 18 16 17 17 15 14 9 10 11 11 12 13 14 17
20 19 24 30 36 42 44 47 47 47 47 46 43 45 44 40 33 27 23 20 31 32 32 30 27 24 22 22 21 20 18 18 16 14 13 10 11 12 14 14 14 15 15
29 32 30 28 32 41 47 45 44 41 43 41 41 42 35 26 22 17 7 12 28 31 28 31 26 24 24 23 21 19 18 16 15 13 12 12 12 14 15 15 15 13 11
24 29 34 34 37 41 46 44 39 35 39 39 32 35 32 29 28 18 31 27 35 31 32 29 25 24 23 21 19 20 17 14 13 12 9 12 14 15 16 16 13 8 9
21 24 22 30 38 43 47 45 41 44 42 31 24 22 17 12 22 37 32 32 35 36 35 29 26 24 21 19 19 18 16 17 13 9 7 11 14 16 16 10 9 9 9
16 9 16 15 14 45 52 51 51 48 38 23 23 26 25 28 34 32 31 39 40 35 31 27 24 22 21 20 18 16 16 16 13 9 9 11 14 16 11 8 9 8 9
7 4 13 8 2 25 26 47 36 21 13 9 23 37 33 34 38 37 36 35 32 31 27 23 21 20 20 19 19 18 19 18 13 9 9 10 14 14 11 9 10 9 8
6 11 11 19 21 12 9 9 21 19 14 14 29 37 35 37 33 34 36 32 28 24 23 20 19 21 19 20 19 20 19 14 12 11 9 10 13 13 12 10 9 9 9
22 13 2 7 10 14 13 10 16 21 28 38 38 36 33 34 37 35 30 28 25 22 20 17 18 17 16 18 18 18 17 14 13 9 9 10 12 13 14 12 11 11 9
12 13 16 13 10 9 12 16 18 23 26 29 29 30 30 30 26 26 25 25 23 22 20 18 18 16 14 14 14 13 12 14 13 10 9 11 12 14 14 13 12 11 10
16 12 10 10 9 13 18 18 17 18 21 22 21 20 26 27 28 26 24 23 24 22 20 18 16 16 16 16 14 13 13 15 18 13 12 15 15 15 15 13 12 11 10
20 19 16 15 8 5 4 6 10 13 18 19 22 25 28 29 28 26 25 25 24 23 20 18 16 16 16 16 16 15 15 19 15 10 16 14 14 14 14 13 13 12 9
13 12 12 11 12 9 6 4 5 5 5 8 15 18 19 23 25 26 27 26 25 24 20 17 15 16 18 17 17 15 14 16 10 10 12 12 13 14 15 14 13 11 9
Wind_Direction
237 238 237 236 236 236 237 237 237 237 229 231 229 228 229 232 234 239 239 236 240 244 244 246 247 250 248 249 250 249 252 256 262 267 273 284 285 277 287 303 303 311 312
237 238 239 239 238 237 237 237 235 237 232 229 229 227 229 230 230 235 237 236 238 243 250 249 248 244 249 252 253 251 253 253 255 269 278 283 286 282 287 289 291 299 305
236 238 238 239 239 239 239 237 237 236 235 229 229 229 229 229 228 228 235 239 242 245 250 251 253 249 247 249 255 252 259 256 261 267 277 274 276 282 283 289 293 297 305
234 236 238 238 239 239 240 237 236 234 234 231 227 227 227 228 226 226 232 238 241 245 250 248 248 248 250 249 250 253 256 257 264 268 275 275 276 280 286 291 290 297 307
233 235 239 240 239 238 238 237 236 235 234 232 229 229 231 231 229 229 232 238 244 248 251 252 248 246 248 250 251 254 255 258 267 272 269 273 279 285 290 293 293 300 308
235 237 238 236 236 235 234 234 234 236 235 235 232 230 233 234 232 233 236 240 245 253 258 258 256 253 244 248 248 249 252 255 259 265 266 267 276 281 288 285 288 301 299
237 237 236 235 235 235 232 230 231 232 234 235 236 234 234 237 238 238 241 244 249 254 259 261 260 251 254 246 247 249 250 250 254 265 268 270 275 281 278 281 289 293 292
237 235 234 234 236 235 233 229 229 230 232 233 234 235 236 238 240 240 242 243 245 251 255 255 251 246 247 244 242 245 253 257 254 261 265 270 271 278 282 284 289 291 292
239 237 235 235 234 233 234 231 230 229 232 233 235 235 236 238 237 236 237 239 241 246 249 265 243 238 231 231 239 244 251 255 256 265 264 266 278 283 285 285 290 290 293
242 239 238 237 236 234 236 237 234 233 233 235 238 237 236 239 237 233 232 234 238 240 243 247 223 229 221 217 232 239 252 254 256 253 259 268 276 277 285 290 291 293 298
246 243 238 236 237 237 240 245 241 236 235 236 238 241 238 234 235 230 228 230 231 234 241 226 220 220 213 212 224 236 254 249 240 257 266 260 264 281 293 293 294 294 295
254 251 247 244 242 238 237 239 241 237 232 235 239 240 236 233 232 226 225 227 229 237 236 221 213 204 206 211 230 243 238 236 243 250 252 257 267 292 297 302 292 288 302
247 254 256 256 249 241 244 244 232 230 227 234 231 231 232 235 225 217 220 218 219 222 213 205 198 202 208 220 230 231 228 232 236 245 241 241 265 281 289 292 283 293 307
270 262 259 256 256 249 248 245 228 229 227 229 224 224 223 228 223 215 205 196 196 195 190 202 195 202 215 221 219 216 222 233 232 234 228 235 271 276 287 286 283 292 306
300 293 271 256 255 248 246 240 226 233 226 222 219 217 217 213 217 222 192 203 203 200 189 201 203 204 210 208 209 215 223 222 223 220 236 256 272 280 287 278 280 289 302
294 287 278 271 254 243 238 232 223 230 222 223 224 225 216 197 154 158 198 236 218 203 195 208 207 206 201 206 211 218 211 210 216 225 244 262 272 280 278 273 280 288 295
299 292 280 267 250 241 227 221 214 210 211 211 207 194 169 196 212 236 194 192 206 206 210 210 211 208 203 210 211 206 205 209 213 228 249 261 267 276 269 276 274 273 299
315 282 266 260 247 228 209 208 193 186 164 147 153 179 175 175 170 180 181 177 202 206 210 207 205 202 206 208 204 208 207 205 205 216 252 269 272 268 270 267 269 285 294
355 301 268 251 256 223 203 184 172 159 150 152 174 172 170 173 176 178 165 191 201 203 201 199 197 196 196 200 206 207 209 209 216 226 262 278 274 264 260 267 277 283 292
12 282 232 280 190 6 107 134 138 145 149 215 184 194 170 170 179 175 184 197 199 200 195 193 196 199 197 201 209 211 207 212 223 239 272 271 266 260 257 264 282 287 289
7 320 291 253 234 288 356 218 156 170 190 218 207 193 174 174 177 184 186 189 193 196 193 197 206 209 203 208 214 216 215 223 227 243 253 261 262 259 247 252 268 288 286
51 45 52 183 214 173 173 181 132 134 159 173 168 167 172 184 187 184 183 185 190 196 197 206 210 214 214 216 216 210 211 223 220 240 268 262 263 252 238 248 266 287 282
60 65 66 79 86 93 110 115 133 149 157 160 165 176 183 188 190 188 186 186 187 191 197 200 202 201 204 197 194 202 221 238 246 249 268 267 267 250 243 252 271 281 276
61 66 75 86 103 135 144 147 154 160 164 165 174 187 194 190 200 196 189 188 190 194 197 199 201 203 202 201 204 219 230 230 240 252 285 278 255 241 237 250 263 274 274
65 64 72 75 93 184 202 191 195 190 192 194 198 204 205 204 197 191 188 191 195 197 198 205 208 208 210 212 222 221 230 226 220 255 278 260 233 230 242 253 266 264 254
82 88 83 78 76 73 86 84 104 118 143 193 209 210 206 199 204 196 190 193 199 198 202 202 209 220 225 223 226 229 225 217 231 258 251 234 234 242 251 256 250 241 244
Height
1479 1485 1491 1496 1502 1508 1513 1519 1523 1527 1530 1535 1540 1545 1547 1550 1554 1556 1559 1562 1563 1565 1567 1568 1569 1570 1570 1571 1571 1573 1574 1575 1576 1578 1579 1580 1580 1580 1580 1580 1579 1578 1577
1467 1474 1480 1487 1492 1497 1504 1511 1516 1519 1524 1528 1533 1537 1541 1545 1548 1550 1554 1557 1559 1561 1564 1564 1565 1567 1567 1567 1568 1570 1571 1572 1573 1574 1575 1576 1577 1577 1577 1576 1575 1574 1572
1459 1464 1470 1477 1483 1488 1495 1503 1508 1512 1516 1521 1525 1530 1534 1537 1541 1545 1548 1550 1554 1556 1558 1560 1562 1563 1563 1564 1565 1566 1568 1569 1570 1570 1571 1571 1572 1572 1572 1571 1570 1569 1567
1450 1455 1460 1465 1470 1477 1485 1493 1498 1504 1509 1513 1518 1522 1527 1531 1534 1537 1540 1544 1546 1549 1551 1552 1554 1555 1558 1560 1561 1562 1564 1565 1565 1566 1566 1567 1568 1569 1568 1567 1565 1563 1561
1439 1444 1448 1454 1461 1469 1476 1483 1490 1495 1499 1504 1509 1514 1519 1523 1526 1529 1532 1535 1539 1541 1542 1544 1547 1548 1551 1555 1557 1559 1560 1562 1561 1561 1562 1563 1564 1563 1563 1563 1561 1560 1558
1427 1431 1438 1445 1451 1458 1465 1473 1480 1485 1491 1495 1499 1504 1509 1513 1518 1522 1526 1529 1531 1533 1536 1539 1542 1544 1544 1548 1550 1552 1555 1556 1556 1557 1555 1556 1558 1558 1557 1556 1554 1553 1552
1416 1422 1428 1435 1441 1448 1455 1463 1469 1474 1481 1486 1491 1496 1499 1504 1509 1515 1519 1521 1524 1525 1528 1531 1534 1536 1537 1539 1544 1546 1548 1550 1550 1551 1552 1553 1552 1551 1550 1549 1549 1547 1546
1408 1414 1420 1425 1431 1439 1445 1451 1458 1463 1468 1473 1479 1485 1491 1495 1502 1507 1509 1512 1513 1515 1519 1523 1524 1526 1530 1532 1537 1540 1543 1545 1545 1546 1547 1547 1547 1545 1544 1543 1542 1541 1540
1401 1404 1410 1415 1421 1427 1432 1438 1446 1452 1457 1461 1468 1474 1481 1486 1490 1493 1499 1502 1503 1507 1511 1514 1515 1518 1522 1526 1530 1533 1537 1539 1540 1542 1542 1541 1541 1540 1540 1537 1536 1534 1533
1394 1395 1400 1407 1412 1418 1424 1430 1437 1442 1448 1453 1458 1465 1471 1475 1479 1483 1488 1490 1494 1498 1502 1505 1507 1509 1513 1516 1521 1527 1532 1535 1534 1534 1535 1536 1537 1533 1532 1532 1530 1530 1528
1389 1394 1396 1399 1405 1409 1414 1423 1430 1435 1440 1445 1448 1453 1459 1463 1466 1473 1478 1480 1485 1490 1493 1496 1498 1502 1506 1510 1515 1520 1523 1527 1529 1532 1532 1529 1529 1529 1527 1526 1524 1524 1525
1387 1391 1395 1399 1403 1405 1405 1405 1414 1427 1430 1434 1442 1446 1449 1452 1457 1465 1470 1475 1480 1485 1489 1490 1493 1496 1501 1504 1510 1514 1516 1519 1523 1522 1526 1528 1526 1526 1524 1522 1521 1520 1519
1380 1384 1388 1391 1394 1400 1403 1402 1406 1412 1413 1422 1426 1433 1441 1444 1448 1452 1458 1466 1472 1478 1481 1486 1489 1493 1498 1501 1504 1508 1510 1513 1515 1519 1517 1518 1522 1522 1520 1519 1519 1517 1515
1375 1377 1380 1383 1385 1387 1391 1397 1402 1403 1400 1402 1407 1411 1417 1430 1439 1445 1450 1455 1467 1473 1475 1487 1483 1487 1492 1496 1500 1503 1505 1510 1510 1514 1515 1511 1517 1518 1516 1517 1515 1513 1511
1369 1370 1371 1372 1376 1377 1378 1379 1383 1389 1396 1396 1404 1410 1411 1418 1431 1442 1443 1458 1464 1467 1462 1479 1480 1479 1487 1490 1493 1496 1499 1504 1508 1507 1512 1510 1513 1512 1512 1513 1510 1507 1505
1360 1361 1362 1362 1363 1367 1369 1373 1379 1383 1389 1394 1399 1405 1413 1418 1426 1444 1433 1451 1464 1472 1466 1476 1475 1475 1479 1487 1489 1491 1493 1498 1502 1502 1505 1505 1508 1509 1508 1507 1503 1501 1501
1351 1349 1349 1349 1349 1350 1356 1364 1369 1374 1380 1388 1396 1398 1403 1407 1403 1433 1438 1434 1452 1462 1463 1472 1473 1475 1476 1482 1482 1485 1487 1493 1496 1499 1498 1502 1504 1503 1504 1502 1498 1495 1494
1345 1342 1344 1342 1339 1337 1336 1346 1354 1360 1367 1379 1388 1397 1398 1403 1404 1417 1423 1423 1454 1453 1460 1462 1465 1468 1473 1478 1482 1484 1486 1490 1491 1491 1493 1498 1499 1500 1499 1496 1494 1491 1489
1340 1340 1342 1342 1341 1328 1324 1329 1338 1349 1364 1376 1390 1389 1398 1406 1414 1419 1403 1429 1443 1450 1456 1456 1460 1461 1465 1471 1476 1479 1484 1487 1487 1486 1490 1493 1495 1496 1492 1490 1490 1486 1486
1346 1346 1344 1343 1342 1337 1297 1316 1336 1349 1358 1383 1382 1392 1384 1394 1410 1406 1415 1430 1438 1449 1453 1456 1459 1461 1462 1466 1470 1475 1479 1481 1480 1482 1485 1487 1491 1490 1487 1485 1486 1484 1483
1350 1343 1343 1341 1348 1338 1330 1340 1330 1343 1354 1359 1368 1390 1391 1399 1407 1413 1418 1429 1439 1444 1449 1452 1455 1459 1458 1462 1464 1468 1474 1475 1475 1477 1479 1482 1486 1484 1483 1481 1480 1480 1479
1352 1351 1348 1344 1345 1351 1351 1352 1341 1341 1352 1368 1378 1387 1394 1403 1409 1414 1420 1426 1433 1441 1445 1450 1453 1456 1457 1457 1460 1462 1467 1469 1468 1471 1474 1475 1478 1479 1478 1477 1477 1475 1475
1362 1362 1359 1355 1353 1352 1352 1354 1356 1364 1372 1376 1381 1388 1395 1407 1413 1415 1419 1425 1430 1437 1443 1448 1450 1450 1454 1454 1455 1459 1463 1467 1470 1466 1469 1469 1471 1473 1474 1473 1473 1472 1471
1369 1368 1366 1365 1365 1366 1368 1370 1373 1375 1378 1383 1388 1395 1400 1404 1411 1416 1421 1425 1429 1435 1441 1444 1446 1448 1450 1451 1452 1452 1458 1461 1464 1463 1464 1463 1466 1468 1467 1466 1467 1468 1467
1374 1374 1375 1372 1371 1373 1377 1378 1380 1380 1383 1387 1390 1394 1400 1403 1409 1412 1418 1423 1430 1436 1438 1443 1441 1443 1446 1447 1449 1450 1453 1457 1455 1455 1460 1460 1460 1462 1462 1462 1463 1462 1462
1380 1380 1381 1381 1379 1380 1383 1382 1382 1383 1384 1384 1388 1391 1396 1400 1406 1410 1413 1420 1426 1429 1433 1434 1436 1440 1442 1440 1445 1448 1448 1452 1452 1450 1454 1456 1456 1456 1455 1455 1457 1458 1460